| time (UTC) | temp F | wind direction | speed knots | gust knots | rain 1hr in | rain 24hr in | rain mn in | humidity % | barometer mb |
| 20260507081515 | 55 | 300 | 0.0 | 0.0 | 0.00 | 0.35 | 0.25 | 91 | 1010.6 |
| 20260507080014 | 55 | 348 | 0.0 | 2.6 | 0.00 | 0.35 | 0.25 | 91 | 1010.3 |
| 20260507074524 | 55 | 288 | 0.0 | 5.2 | 0.00 | 0.35 | 0.25 | 91 | 1010.2 |
| 20260507073010 | 55 | 304 | 0.0 | 5.2 | 0.00 | 0.35 | 0.25 | 91 | 1010.0 |
| 20260507071509 | 56 | 346 | 0.0 | 3.5 | 0.00 | 0.35 | 0.25 | 92 | 1009.8 |
| 20260507070011 | 56 | 324 | 0.0 | 5.2 | 0.03 | 0.35 | 0.25 | 91 | 1009.7 |
| 20260507064507 | 56 | 335 | 2.6 | 7.8 | 0.07 | 0.35 | 0.25 | 92 | 1009.8 |
| 20260507063002 | 57 | 317 | 2.6 | 10.4 | 0.13 | 0.35 | 0.25 | 92 | 1009.3 |
| 20260507061600 | 58 | 298 | 3.5 | 9.6 | 0.18 | 0.35 | 0.25 | 92 | 1008.9 |
| 20260507054606 | 58 | 313 | 0.0 | 5.2 | 0.17 | 0.28 | 0.18 | 91 | 1009.6 |
| 20260507053125 | 58 | 331 | 0.0 | 7.0 | 0.12 | 0.22 | 0.12 | 90 | 1009.2 |
| 20260507051552 | 59 | 261 | 0.0 | 0.0 | 0.06 | 0.16 | 0.06 | 89 | 1009.7 |
| 20260507050048 | 60 | 304 | 0.0 | 1.7 | 0.03 | 0.13 | 0.03 | 87 | 1010.1 |
| 20260507044545 | 62 | 306 | 0.0 | 10.4 | 0.01 | 0.11 | 0.01 | 86 | 1009.8 |
| 20260507043040 | 64 | 292 | 0.9 | 7.0 | 0.00 | 0.10 | 0.00 | 86 | 1010.0 |
| 20260507041538 | 64 | 324 | 0.0 | 7.0 | 0.00 | 0.10 | 0.00 | 87 | 1009.5 |
| 20260507040035 | 64 | 310 | 0.0 | 6.1 | 0.00 | 0.10 | 0.00 | 88 | 1009.2 |
| 20260507034535 | 64 | 305 | 0.9 | 4.3 | 0.00 | 0.10 | 0.10 | 88 | 1009.1 |
| 20260507033037 | 65 | 321 | 0.9 | 7.8 | 0.00 | 0.10 | 0.10 | 89 | 1009.1 |
| 20260507031533 | 65 | 321 | 0.0 | 5.2 | 0.00 | 0.10 | 0.10 | 90 | 1008.8 |
| 20260507030034 | 64 | 192 | 0.0 | 0.0 | 0.00 | 0.10 | 0.10 | 91 | 1008.6 |
| 20260507024535 | 64 | 192 | 0.0 | 0.0 | 0.00 | 0.10 | 0.10 | 91 | 1008.4 |
| 20260507023031 | 63 | 192 | 0.0 | 0.0 | 0.00 | 0.10 | 0.10 | 91 | 1008.5 |
| 20260507021532 | 63 | 192 | 0.0 | 0.0 | 0.00 | 0.10 | 0.10 | 91 | 1008.5 |
| 20260507020034 | 63 | 192 | 0.0 | 0.0 | 0.00 | 0.10 | 0.10 | 91 | 1008.7 |
| 20260507014531 | 63 | 192 | 0.0 | 0.0 | 0.00 | 0.10 | 0.10 | 91 | 1008.5 |
| 20260507013036 | 63 | 192 | 0.0 | 0.0 | 0.00 | 0.10 | 0.10 | 90 | 1008.7 |
| 20260507011538 | 64 | 192 | 0.0 | 0.0 | 0.00 | 0.10 | 0.10 | 90 | 1009.1 |
| 20260507010030 | 63 | 192 | 0.0 | 0.0 | 0.00 | 0.10 | 0.10 | 90 | 1008.8 |
| 20260507004529 | 63 | 192 | 0.0 | 0.0 | 0.00 | 0.10 | 0.10 | 89 | 1008.8 |
| 20260507003028 | 64 | 192 | 0.0 | 0.0 | 0.00 | 0.10 | 0.10 | 88 | 1008.5 |
| 20260507001529 | 65 | 195 | 0.0 | 0.0 | 0.00 | 0.10 | 0.10 | 88 | 1008.5 |
| 20260507000026 | 65 | 195 | 0.0 | 0.0 | 0.00 | 0.10 | 0.10 | 87 | 1008.2 |
| 20260506234531 | 66 | 195 | 0.0 | 0.0 | 0.00 | 0.10 | 0.10 | 85 | 1008.1 |
| 20260506233026 | 66 | 195 | 0.0 | 0.0 | 0.00 | 0.10 | 0.10 | 85 | 1008.0 |
| 20260506231525 | 67 | 194 | 0.0 | 0.0 | 0.00 | 0.10 | 0.10 | 84 | 1008.0 |
| 20260506230023 | 68 | 215 | 0.0 | 0.9 | 0.00 | 0.10 | 0.10 | 82 | 1007.8 |
| 20260506224527 | 68 | 184 | 0.0 | 5.2 | 0.00 | 0.10 | 0.10 | 82 | 1007.7 |
| 20260506223022 | 69 | 210 | 0.0 | 3.5 | 0.00 | 0.10 | 0.10 | 81 | 1007.9 |
| 20260506221522 | 69 | 225 | 0.0 | 6.1 | 0.00 | 0.10 | 0.10 | 81 | 1007.9 |
| 20260506220021 | 69 | 196 | 1.7 | 10.4 | 0.00 | 0.10 | 0.10 | 80 | 1007.9 |
| 20260506214520 | 69 | 222 | 0.9 | 5.2 | 0.00 | 0.10 | 0.10 | 80 | 1008.0 |
| 20260506213021 | 69 | 220 | 0.9 | 7.0 | 0.00 | 0.10 | 0.10 | 80 | 1007.8 |
| 20260506211519 | 69 | 214 | 0.9 | 8.7 | 0.00 | 0.10 | 0.10 | 81 | 1007.7 |
| 20260506210023 | 69 | 214 | 0.0 | 10.4 | 0.00 | 0.10 | 0.10 | 81 | 1007.5 |
| 20260506204519 | 69 | 166 | 1.7 | 11.3 | 0.00 | 0.10 | 0.10 | 80 | 1007.4 |
| 20260506203017 | 69 | 203 | 2.6 | 7.8 | 0.00 | 0.10 | 0.10 | 81 | 1007.3 |
| 20260506201521 | 69 | 248 | 1.7 | 14.8 | 0.00 | 0.10 | 0.10 | 81 | 1007.5 |
| 20260506200019 | 69 | 124 | 2.6 | 16.5 | 0.00 | 0.10 | 0.10 | 82 | 1007.3 |
| 20260506194516 | 69 | 182 | 3.5 | 10.4 | 0.00 | 0.10 | 0.10 | 82 | 1007.3 |
| 20260506193013 | 68 | 214 | 1.7 | 13.9 | 0.00 | 0.10 | 0.10 | 82 | 1007.9 |
| 20260506191516 | 68 | 201 | 4.3 | 14.8 | 0.00 | 0.10 | 0.10 | 82 | 1007.9 |
| 20260506190012 | 68 | 227 | 4.3 | 12.2 | 0.00 | 0.10 | 0.10 | 81 | 1008.1 |
| 20260506184512 | 69 | 184 | 1.7 | 11.3 | 0.00 | 0.10 | 0.10 | 81 | 1008.0 |
| 20260506183012 | 69 | 219 | 3.5 | 15.6 | 0.00 | 0.10 | 0.10 | 83 | 1008.3 |
| 20260506181506 | 68 | 220 | 2.6 | 13.9 | 0.00 | 0.10 | 0.10 | 82 | 1008.6 |
| 20260506180006 | 68 | 247 | 3.5 | 14.8 | 0.00 | 0.10 | 0.10 | 82 | 1008.6 |
| 20260506174507 | 67 | 157 | 2.6 | 18.2 | 0.00 | 0.10 | 0.10 | 85 | 1008.8 |
| 20260506173006 | 67 | 219 | 2.6 | 12.2 | 0.00 | 0.10 | 0.10 | 86 | 1008.7 |
| 20260506171508 | 66 | 225 | 4.3 | 13.9 | 0.00 | 0.10 | 0.10 | 88 | 1009.1 |
| 20260506170004 | 65 | 190 | 3.5 | 14.8 | 0.00 | 0.10 | 0.10 | 88 | 1008.9 |
| 20260506164502 | 64 | 180 | 1.7 | 7.8 | 0.01 | 0.10 | 0.10 | 90 | 1009.3 |
| 20260506163133 | 63 | 138 | 6.1 | 15.6 | 0.02 | 0.10 | 0.10 | 91 | 1009.2 |
| 20260506161559 | 64 | 201 | 2.6 | 9.6 | 0.02 | 0.10 | 0.10 | 92 | 1009.3 |
| 20260506160055 | 63 | 163 | 1.7 | 9.6 | 0.03 | 0.10 | 0.10 | 92 | 1009.6 |
| 20260506154555 | 62 | 213 | 1.7 | 13.9 | 0.04 | 0.09 | 0.09 | 92 | 1009.5 |
| 20260506153102 | 62 | 157 | 0.0 | 6.1 | 0.04 | 0.08 | 0.08 | 92 | 1009.8 |
| 20260506151551 | 62 | 167 | 0.9 | 6.1 | 0.06 | 0.08 | 0.08 | 92 | 1010.3 |
| 20260506150048 | 61 | 205 | 0.9 | 7.8 | 0.04 | 0.06 | 0.06 | 91 | 1010.2 |
| 20260506144548 | 62 | 169 | 0.9 | 4.3 | 0.04 | 0.05 | 0.05 | 91 | 1010.4 |
| 20260506143045 | 61 | 194 | 0.9 | 7.0 | 0.04 | 0.04 | 0.04 | 90 | 1010.4 |
| 20260506141544 | 62 | 159 | 0.0 | 7.0 | 0.02 | 0.02 | 0.02 | 89 | 1010.3 |
| 20260506140043 | 62 | 177 | 0.9 | 6.1 | 0.02 | 0.02 | 0.02 | 88 | 1010.5 |
| 20260506134539 | 63 | 203 | 0.9 | 7.8 | 0.01 | 0.01 | 0.01 | 85 | 1010.5 |
| 20260506133038 | 64 | 225 | 0.9 | 8.7 | 0.00 | 0.00 | 0.00 | 80 | 1010.7 |
| 20260506131538 | 65 | 229 | 2.6 | 8.7 | 0.00 | 0.00 | 0.00 | 78 | 1010.4 |
| 20260506130039 | 65 | 180 | 0.9 | 9.6 | 0.00 | 0.00 | 0.00 | 77 | 1010.1 |
| 20260506124535 | 66 | 194 | 2.6 | 7.0 | 0.00 | 0.00 | 0.00 | 76 | 1010.0 |
| 20260506123032 | 65 | 161 | 1.7 | 8.7 | 0.00 | 0.00 | 0.00 | 77 | 1010.2 |
| 20260506121532 | 65 | 205 | 1.7 | 12.2 | 0.00 | 0.00 | 0.00 | 76 | 1010.3 |
| 20260506120034 | 65 | 223 | 2.6 | 13.0 | 0.00 | 0.00 | 0.00 | 76 | 1010.4 |
| 20260506114531 | 65 | 207 | 2.6 | 10.4 | 0.00 | 0.00 | 0.00 | 76 | 1010.1 |
| 20260506113030 | 65 | 154 | 2.6 | 13.0 | 0.00 | 0.00 | 0.00 | 78 | 1010.0 |
| 20260506111531 | 65 | 161 | 0.9 | 12.2 | 0.00 | 0.00 | 0.00 | 79 | 1009.8 |
| 20260506110025 | 64 | 175 | 0.9 | 11.3 | 0.00 | 0.00 | 0.00 | 79 | 1009.7 |
| 20260506104524 | 64 | 191 | 1.7 | 7.8 | 0.00 | 0.00 | 0.00 | 80 | 1009.8 |
| 20260506103022 | 63 | 218 | 0.0 | 7.0 | 0.00 | 0.00 | 0.00 | 80 | 1009.7 |
| 20260506101521 | 63 | 187 | 0.9 | 11.3 | 0.00 | 0.00 | 0.00 | 80 | 1009.8 |
| 20260506100019 | 63 | 135 | 0.9 | 7.0 | 0.00 | 0.00 | 0.00 | 80 | 1009.6 |
| 20260506094518 | 63 | 176 | 1.7 | 8.7 | 0.00 | 0.00 | 0.00 | 80 | 1009.6 |
| 20260506093016 | 63 | 254 | 0.9 | 9.6 | 0.00 | 0.00 | 0.00 | 80 | 1009.8 |
| 20260506091514 | 63 | 184 | 1.7 | 7.8 | 0.00 | 0.00 | 0.00 | 79 | 1009.9 |
| 20260506090013 | 63 | 166 | 0.9 | 7.8 | 0.00 | 0.00 | 0.00 | 79 | 1009.8 |
| 20260506084510 | 64 | 165 | 2.6 | 8.7 | 0.00 | 0.00 | 0.00 | 78 | 1009.9 |
| 20260506083015 | 64 | 138 | 1.7 | 8.7 | 0.00 | 0.00 | 0.00 | 77 | 1009.9 |